User: anonymous   Login
Location: Ostrava
(49.8330°N, 18.2830°E)
Time: 05:30:13
(UTC+01:00)
Language:

Explorer 7 - Orbit

View from above orbital plane
View from above orbital plane
View from above satellite
View from above satellite

Ground track
Ground track

The orbit data is extracted from the following two-line orbital elements,

1 00022U 59009A   17022.19001833  .00000614  00000-0  70086-4 0  9990
2 00022  50.2841 166.1085 0142771 196.2694 163.3644 14.93917372 39524
Epoch (UTC): 22 January 2017 04:33:37
Eccentricity: 0.0142771
inclination: 50.2841°
perigee height: 486 km
apogee height: 685 km
right ascension of ascending node: 166.1085°
argument of perigee: 196.2694°
revolutions per day: 14.93917372
mean anomaly at epoch: 163.3644°
orbit number at epoch: 3952

The dashed part of the orbit path shows where the satellite is in the earth's shadow,  

DLR